Location: Asheville, NC
(35.6000°N, 82.5500°W)
Time: 05:37:41
(UTC-05:00)

Vanguard 2 Rocket - Pass Details

Date: 10 February 2018
Orbit: 555 x 3327 km, 32.9° (Epoch: 17 February)

Event Time Altitude Azimuth Distance (km) Brightness Sun altitude
Rises 21:42:57 0° 175° (S) 5,430 - -44.1°
Reaches altitude 10° 21:49:28 10° 150° (SSE) 5,057 - -45.3°
Maximum altitude 21:55:29 13° 126° (SE) 5,247 - -46.5°
Drops below altitude 10° 22:02:20 10° 104° (ESE) 5,937 - -47.8°
Sets 22:11:33 0° 83° (E) 7,270 - -49.6°
